Overview Statistics Trail Chart Weather Telemetry Raw packets
 

This is the latest recevied weather packets stored in our database for station/object K1NOT-WX. If no packets are shown the sender has not sent any weather packets the latest 10 day(s).

<< 1 2 3 4 >>
Time Temp. Humidity Pressure Rain* Wind** Luminosity Snow
1777748232 18.89° C 68% 1008.1 hPa 0 mm - - -
1777747332 18.89° C 68% 1007.8 hPa 0 mm - - -
1777746432 17.78° C 69% 1007.8 hPa 0 mm - - -
1777745532 17.78° C 69% 1007.8 hPa 0 mm - - -
1777744632 17.22° C 71% 1008.1 hPa 0 mm - - -
1777743732 16.11° C 74% 1008.1 hPa 0 mm - - -
1777742832 15.56° C 75% 1008.5 hPa 0 mm - - -
1777741932 15.56° C 74% 1008.5 hPa 0 mm - - -
1777741032 14.44° C 79% 1008.5 hPa 0 mm - - -
1777740133 14.44° C 78% 1008.1 hPa 0 mm - - -
1777739233 13.89° C 80% 1008.5 hPa 0 mm - - -
1777738333 13.33° C 82% 1008.1 hPa 0 mm - - -
1777737433 13.33° C 82% 1008.5 hPa 0 mm - - -
1777736533 12.78° C 82% 1008.5 hPa 0 mm - - -
1777735633 12.78° C 83% 1008.1 hPa 0 mm - - -
1777734733 12.22° C 85% 1007.8 hPa 0 mm - - -
1777733833 11.67° C 87% 1008.1 hPa 0 mm - - -
1777732933 11.67° C 90% 1008.1 hPa 0 mm - - -
1777732033 11.11° C 92% 1008.1 hPa 0 mm - - -
1777730233 10.56° C 94% 1008.1 hPa 0 mm - - -
1777729333 10° C 94% 1008.1 hPa 0 mm - - -
1777728433 10° C 94% 1008.5 hPa 0 mm - - -
1777727533 10° C 94% 1008.1 hPa 0 mm - - -
1777726633 10° C 94% 1007.8 hPa 0 mm - - -
1777725733 10° C 94% 1008.1 hPa 0 mm - - -

* Rain latest hour (hover to see other rain measurements)
** Current wind speed in m/s (hover to see current wind gust speed)